Wind_Speed
22 23 23 22 22 21 20 19 18 18 17 16 16 15 15 15 15 15 15 16 16 16 15 15 16 17 18 18 17 17 19 21 21 23 25 21 17 16 18 19 20 20 20 20 21 22 22 23 23 23 22 21 21 21 21 21 20 20 19 19 18 17 15 14 12 11 9 8 8 8 9 11 12 13 15 16 18 19 20 21 23 23 24 26 27 28 29 31
25 24 23 22 21 20 19 18 17 17 16 16 16 16 17 17 17 18 18 18 19 19 19 19 19 19 19 18 18 20 21 21 22 23 21 18 18 18 19 20 21 20 20 21 21 22 24 24 24 23 22 22 22 21 20 20 19 19 19 19 18 18 17 16 15 14 12 11 10 9 8 8 9 9 11 12 12 14 15 16 18 18 19 21 23 24 25 26
23 22 21 20 20 19 19 18 18 17 17 17 17 18 18 19 19 19 20 20 20 20 20 20 20 19 19 19 20 20 20 20 22 21 19 19 19 19 20 21 21 20 21 22 22 23 25 25 25 24 23 24 23 21 21 20 19 19 19 19 18 18 17 17 16 15 14 13 12 12 11 11 11 11 12 12 13 14 15 16 18 18 20 21 23 24 25 26
22 21 20 20 20 20 19 19 19 19 19 19 19 19 19 20 20 20 20 20 20 20 20 20 20 19 19 19 20 20 20 22 23 21 21 21 20 20 20 21 21 21 21 22 23 24 25 25 25 24 24 25 23 22 21 20 20 19 19 19 18 18 17 17 16 16 16 15 15 15 15 15 15 15 15 16 16 17 18 19 20 21 22 23 24 26 27 28
22 21 21 20 20 20 20 19 19 19 19 19 19 19 20 20 20 20 20 20 20 19 19 20 20 20 19 19 20 21 22 22 22 21 21 21 20 20 20 21 22 21 22 23 23 24 25 25 25 25 25 25 23 22 21 20 19 19 19 19 18 18 18 18 18 18 18 18 18 18 18 18 19 19 19 19 20 21 21 22 23 24 24 25 26 27 28 29
21 21 21 20 20 20 20 19 19 20 20 20 20 20 20 20 20 20 19 19 19 19 19 19 21 22 20 18 17 20 22 20 20 20 20 19 20 20 20 22 22 22 23 24 24 24 24 25 26 26 25 24 23 22 21 20 20 20 19 19 19 19 19 19 19 19 20 20 20 20 20 21 22 22 22 23 24 24 26 26 26 27 27 28 29 29 29 30
21 21 21 21 21 20 20 20 20 20 20 21 21 20 20 20 20 20 19 19 19 19 19 19 21 22 20 16 14 18 20 18 18 18 18 19 20 20 20 23 23 23 24 25 25 24 24 26 27 26 25 24 24 23 22 22 22 21 20 20 20 20 20 20 20 21 21 21 22 22 23 23 24 24 25 26 27 27 29 29 30 30 31 31 32 32 32 32
22 22 22 21 21 21 21 21 21 21 21 22 21 21 21 21 21 20 20 19 19 18 18 18 19 20 19 15 14 19 18 16 16 16 16 18 19 18 21 24 23 24 25 25 24 24 26 27 27 25 25 25 24 23 23 23 23 23 22 23 23 23 22 22 22 23 23 23 23 24 24 25 25 26 27 28 29 30 31 31 32 33 33 34 35 36 36 37
23 23 22 22 22 22 22 22 22 22 22 22 22 22 22 22 22 21 20 20 18 18 17 17 18 18 18 13 13 18 16 15 16 15 17 18 18 19 23 25 23 24 25 24 24 26 27 27 26 25 25 25 23 23 23 24 24 23 23 24 24 24 23 24 24 24 24 24 24 25 25 26 26 27 28 29 30 31 32 33 34 35 36 37 38 39 40 40
23 23 23 23 23 23 23 23 23 23 23 23 22 23 22 21 21 20 19 18 17 17 16 17 17 16 15 10 11 17 16 15 16 16 18 17 17 21 24 23 22 24 24 24 26 26 25 26 26 24 24 24 23 23 23 24 24 23 23 24 23 23 23 23 24 24 24 24 25 25 25 26 27 28 29 30 31 32 33 35 36 37 38 39 41 42 42 43
22 23 23 23 23 23 24 24 24 23 23 23 22 22 22 21 20 20 19 18 16 15 15 15 13 13 12 9 12 18 16 15 17 17 16 17 20 24 23 22 22 24 24 25 26 24 24 25 24 22 23 22 22 23 24 24 23 22 23 22 22 22 23 23 23 24 24 24 25 25 25 27 28 29 30 31 32 33 35 36 37 38 40 41 42 43 43 43
23 23 23 24 24 24 24 24 24 24 23 23 22 22 21 21 21 21 20 19 17 15 14 14 13 13 11 12 16 18 16 18 19 17 16 19 23 22 21 21 22 23 24 24 24 22 23 23 21 22 23 21 22 24 23 22 22 22 22 22 22 22 22 22 23 24 24 25 26 26 26 28 28 30 31 32 33 34 36 37 38 39 41 41 42 42 42 42
24 24 24 24 25 25 25 24 24 23 23 22 23 22 21 22 23 23 22 20 18 17 16 16 16 14 13 16 20 20 20 21 19 16 18 22 22 20 20 22 22 23 23 23 22 21 20 20 20 22 22 22 23 23 22 21 21 21 21 21 22 21 21 22 23 24 24 25 26 26 28 29 29 31 32 33 34 35 36 38 39 40 40 41 41 40 40 38
24 24 24 24 24 24 24 24 23 23 22 22 23 22 22 23 24 24 23 20 19 20 20 19 19 17 18 21 22 21 22 19 15 16 20 21 20 20 21 21 21 21 21 21 19 18 19 20 21 22 23 22 22 21 20 20 20 20 20 21 21 21 22 23 24 25 25 26 27 28 29 30 31 32 33 34 35 36 37 38 39 39 39 39 38 37 36 34
23 23 23 23 23 23 23 24 24 24 24 23 23 23 23 24 24 24 23 21 21 23 23 22 21 21 21 21 20 19 17 15 16 20 21 19 19 19 19 19 20 19 20 20 18 19 20 20 22 23 22 21 21 19 19 19 20 20 20 20 21 21 22 23 24 25 26 27 27 29 30 30 32 33 34 35 36 37 38 38 38 38 38 37 36 35 33 30
23 23 23 23 23 23 23 24 24 24 24 24 23 23 24 25 25 24 22 21 22 24 24 23 22 22 20 17 15 15 15 17 20 21 19 18 18 18 18 19 19 20 21 21 20 20 19 20 23 23 21 19 19 19 20 21 21 20 20 20 20 21 22 23 24 25 26 27 28 29 30 31 33 34 35 36 37 38 38 39 39 38 37 36 34 33 30 28
22 22 22 22 22 23 23 24 24 24 24 23 23 23 24 26 24 22 22 21 23 24 24 23 23 22 19 16 16 17 18 20 20 19 18 18 17 17 18 19 19 20 21 20 19 18 18 21 23 20 18 18 19 21 21 21 21 20 21 20 21 22 23 24 25 26 27 28 29 30 31 33 34 35 37 38 38 39 39 39 39 37 36 34 33 31 28 25
21 21 21 21 22 22 22 23 23 23 23 23 24 24 25 24 22 21 21 22 24 25 23 23 23 22 20 20 21 21 19 19 19 18 17 17 17 18 19 19 20 20 19 17 18 18 20 22 20 18 19 21 22 22 21 21 21 21 21 21 21 22 23 24 25 26 27 28 29 31 32 34 35 37 38 38 39 40 40 39 38 37 35 33 31 29 26 24
20 20 20 21 21 21 22 22 22 23 23 22 23 23 23 21 20 20 21 23 25 23 21 22 22 21 21 22 22 21 20 19 18 17 17 17 18 19 19 19 19 18 17 17 19 20 21 21 20 21 23 23 22 22 21 21 21 21 22 22 23 23 24 25 26 27 28 29 30 32 33 35 36 37 38 38 39 40 40 39 38 37 35 32 30 27 25 23
19 19 19 20 20 21 21 21 22 22 22 21 21 21 21 21 21 21 22 24 23 19 18 19 19 19 21 21 21 20 20 18 16 16 17 17 18 18 18 17 17 17 18 20 22 22 22 21 22 23 23 22 22 22 22 22 22 22 23 23 23 24 25 26 27 28 29 30 31 32 34 35 36 37 38 39 40 40 40 39 38 37 34 31 27 25 23 21
18 19 19 19 20 20 20 21 21 22 21 20 20 20 21 21 21 22 22 21 19 17 17 17 16 18 19 20 20 20 17 16 16 17 17 17 17 17 17 17 17 19 22 22 21 22 21 21 23 24 23 23 23 24 23 23 23 23 24 24 24 25 26 27 29 30 30 31 32 33 34 36 37 37 39 39 40 41 40 39 38 35 31 28 25 22 20 19
17 18 19 19 19 20 20 20 21 21 20 20 19 19 19 20 20 20 19 19 18 18 17 16 16 17 17 17 18 17 15 16 17 18 17 17 18 18 18 18 18 20 21 20 20 21 21 22 24 24 24 25 25 25 24 24 24 24 25 26 26 27 27 28 30 30 31 32 33 34 35 36 37 38 39 39 40 41 40 39 36 32 28 24 22 20 19 18
17 18 18 18 19 19 20 20 19 19 19 19 18 17 18 18 18 18 18 18 18 18 17 16 16 16 16 16 16 16 17 18 19 18 19 19 19 19 20 20 20 20 20 20 21 22 23 23 24 25 25 26 26 26 25 25 25 25 27 28 28 29 28 29 31 31 32 32 33 34 35 36 37 38 39 39 40 41 40 37 34 29 25 22 20 18 18 18
16 17 18 18 18 18 18 18 17 18 18 17 17 17 17 17 17 17 17 18 17 17 17 17 16 16 17 17 17 18 19 19 19 20 21 21 20 20 21 22 22 22 22 23 22 22 23 23 23 25 25 26 26 26 26 26 27 28 29 29 29 29 29 30 31 32 33 33 34 35 36 37 37 38 39 39 40 40 39 36 32 27 23 20 18 17 18 18
15 16 16 17 17 17 17 17 17 17 17 16 16 16 16 16 16 16 16 17 16 16 16 17 16 17 17 17 18 18 18 18 20 21 20 20 20 21 22 23 23 23 23 23 22 23 23 23 24 25 25 26 27 27 28 29 29 30 30 30 30 30 30 31 32 33 34 33 34 35 36 37 37 38 39 39 39 40 38 35 30 25 21 19 18 18 18 19
14 14 15 16 17 17 17 17 17 16 16 16 16 16 15 15 16 16 16 15 15 15 15 16 16 16 17 17 18 17 17 18 19 19 18 19 21 22 22 23 23 23 23 24 24 24 24 24 25 26 26 27 28 29 30 30 30 30 30 30 30 31 30 31 32 34 34 34 34 36 37 37 37 38 39 39 39 39 37 33 29 25 22 20 19 19 19 20
12 13 14 15 16 16 17 17 18 17 17 16 16 15 15 15 16 16 15 15 15 14 15 15 15 15 16 17 16 16 16 16 16 17 18 20 21 22 22 22 23 24 25 25 25 24 24 24 25 26 27 28 29 30 30 30 30 29 30 30 31 31 31 31 33 34 35 34 34 36 37 37 38 39 39 39 39 38 36 32 29 26 24 22 21 21 20 20
11 12 13 14 15 16 17 17 18 18 17 17 16 16 15 15 16 16 16 15 15 15 15 14 15 15 15 15 15 15 15 16 16 17 19 20 21 22 23 23 24 25 25 25 25 25 25 25 26 27 28 29 29 29 29 29 29 29 30 31 32 32 31 32 33 34 35 34 35 36 37 37 38 39 39 39 39 37 35 32 30 28 26 24 23 22 21 21
11 11 12 13 14 16 16 17 17 17 17 17 17 16 16 15 15 16 16 16 16 15 15 14 14 14 14 14 15 15 16 17 18 18 19 20 21 23 23 24 24 25 26 26 26 27 26 26 27 27 28 28 28 28 28 28 29 29 30 32 32 32 33 33 33 33 34 35 36 37 36 36 38 38 39 39 39 37 35 32 29 28 27 27 26 23 22 22
10 10 11 12 14 15 15 16 17 17 17 17 17 17 16 15 15 15 16 16 16 16 15 14 14 13 13 13 13 14 15 16 18 18 19 21 22 23 24 25 25 26 27 27 27 27 27 27 27 27 28 27 27 28 28 29 29 30 31 32 33 33 33 32 32 33 34 35 37 37 36 36 38 39 39 39 39 38 36 32 29 28 28 29 28 25 23 24
10 10 11 12 13 14 15 15 16 16 17 17 17 17 16 15 15 15 16 16 16 16 16 15 14 14 13 13 13 14 15 16 17 19 20 22 23 24 25 26 27 27 27 27 27 27 27 26 26 27 27 27 28 28 28 29 29 30 32 33 33 33 32 32 32 34 34 35 37 37 36 36 38 39 39 39 40 38 36 32 29 28 28 29 29 27 26 27
10 10 11 12 13 14 14 15 15 16 16 16 16 16 16 15 15 15 15 16 17 17 16 16 15 15 14 14 14 15 16 17 19 20 22 23 24 25 26 26 26 26 26 26 26 26 26 26 26 27 27 28 28 28 28 29 29 31 33 33 33 33 33 33 34 34 34 35 36 37 37 37 38 39 40 40 40 38 36 33 29 28 28 29 29 28 28 29
10 10 11 12 12 13 14 14 15 15 16 16 16 16 16 15 15 15 15 16 17 18 17 16 15 15 15 15 15 15 16 17 19 20 21 23 24 24 25 25 26 26 26 26 26 26 25 25 26 26 27 27 27 28 28 28 30 32 32 32 33 34 35 35 34 34 35 35 36 38 38 38 39 39 40 41 40 38 36 33 30 27 27 28 29 29 29 30
10 10 11 12 12 13 13 14 15 16 16 17 17 17 17 16 16 16 16 16 17 17 18 16 15 14 14 14 14 15 16 17 18 19 21 22 23 24 24 25 25 25 25 25 25 25 25 25 25 26 26 27 27 27 28 29 31 32 32 32 33 35 35 35 35 34 35 35 36 38 39 38 39 40 40 40 40 39 37 34 32 29 27 28 29 30 30 30
10 11 11 12 12 13 13 14 15 15 16 17 17 18 17 17 17 17 17 17 17 17 17 17 15 13 13 13 14 14 15 17 18 19 21 23 23 23 24 24 24 24 24 24 24 24 24 24 25 25 26 26 27 27 29 31 32 33 33 33 33 34 34 34 34 34 36 36 36 38 40 40 40 40 40 40 40 40 38 35 34 31 29 28 29 30 31 31
12 12 12 12 12 13 14 14 15 16 16 17 18 18 18 18 18 18 17 17 17 17 17 17 15 13 12 13 14 14 15 17 17 19 21 22 22 22 23 23 24 24 24 24 24 24 24 24 24 25 26 26 27 28 30 32 33 33 33 33 34 34 34 34 34 34 36 37 36 38 40 41 41 41 41 40 40 40 39 36 35 34 31 30 30 31 32 32
13 13 13 13 14 14 15 15 16 16 16 17 18 18 18 18 18 18 18 17 17 17 17 17 15 14 12 13 14 15 15 17 17 19 21 21 21 21 22 23 23 24 24 23 23 23 24 24 25 25 26 27 28 29 31 32 33 34 34 34 35 34 33 34 34 35 36 37 37 38 41 42 42 42 42 41 40 40 39 37 36 34 33 32 32 33 33 33
14 14 14 14 15 15 15 16 17 17 17 18 18 18 18 18 18 18 17 17 17 17 17 17 16 14 13 14 15 15 16 17 18 20 21 20 20 20 22 23 24 24 23 23 23 23 23 24 25 26 27 28 30 31 32 33 34 34 35 35 36 35 34 34 35 36 36 37 38 38 41 42 42 42 43 42 41 40 39 38 36 35 34 33 33 34 34 33
15 15 16 16 16 16 16 17 18 18 18 18 18 18 18 18 18 17 17 16 17 18 18 16 15 14 14 15 15 15 16 17 18 20 20 19 19 20 22 23 24 24 23 23 23 22 23 24 25 26 28 30 31 32 33 34 34 34 34 35 35 35 35 35 35 37 37 38 40 39 41 43 42 42 43 43 42 41 39 38 36 34 34 33 34 35 34 33
16 17 17 17 17 17 17 18 19 19 19 19 18 18 18 18 17 16 16 16 17 18 17 15 14 14 15 15 15 15 17 18 19 21 20 19 19 20 22 24 25 24 23 23 23 22 23 24 25 27 29 30 32 33 34 35 35 34 34 34 34 35 36 35 35 37 38 39 41 41 42 43 42 42 43 43 43 42 40 37 35 34 33 34 35 35 34 33
18 18 18 18 18 18 19 19 20 20 20 20 19 18 18 17 16 15 15 16 17 16 15 14 13 14 15 15 15 16 17 19 20 21 20 19 20 21 23 25 26 25 24 23 23 23 23 24 26 27 29 31 32 34 35 35 35 34 33 34 34 35 36 36 36 37 38 39 40 41 42 43 42 42 43 43 43 43 40 35 33 33 34 34 35 35 35 35
21 21 20 20 19 19 20 20 20 21 21 21 20 18 17 16 15 15 15 15 14 13 13 13 13 14 15 14 14 16 18 20 21 21 20 20 21 22 24 26 26 25 25 25 24 24 24 24 25 27 29 31 33 34 35 35 35 33 33 33 34 35 36 37 37 37 38 39 40 41 42 42 42 42 43 42 43 43 39 35 33 33 34 35 35 35 35 36
23 23 22 21 20 20 21 21 21 22 22 22 20 17 16 15 14 14 13 12 12 12 12 13 13 14 14 14 14 16 18 20 21 21 19 20 21 22 25 26 26 26 26 26 26 25 26 25 26 27 28 30 32 33 34 34 34 33 32 33 34 35 37 37 37 38 38 39 41 41 41 42 42 43 43 42 43 42 39 35 33 33 34 35 35 36 37 37
24 23 22 21 20 20 21 20 21 22 22 21 18 16 14 13 13 12 11 11 11 11 12 13 14 14 14 14 15 16 18 20 21 20 19 20 21 22 25 25 25 26 27 28 28 28 29 29 29 28 28 29 31 32 33 34 33 32 33 33 34 35 36 37 37 37 38 39 40 41 40 41 42 43 43 43 43 42 39 36 35 35 35 36 36 37 38 39
20 20 20 20 20 20 20 20 20 21 21 19 16 14 13 12 12 11 10 10 10 11 13 13 13 14 14 14 16 17 18 20 20 19 19 20 21 22 24 24 24 25 27 28 29 31 32 33 33 32 31 32 33 33 34 34 33 32 32 33 34 34 35 36 36 37 38 38 39 40 39 39 41 43 43 43 43 42 39 36 35 36 36 37 38 38 39 39
16 17 18 19 19 20 20 19 19 20 19 17 15 13 12 11 10 9 9 10 10 11 12 13 13 13 14 15 16 17 18 20 19 18 18 19 20 22 23 23 23 24 27 28 29 31 33 35 36 35 34 33 33 33 33 32 32 31 32 33 34 34 34 36 36 36 37 38 38 39 39 38 39 42 43 42 43 42 39 37 36 37 37 38 38 38 39 39
15 15 16 17 17 18 18 18 18 18 17 15 13 12 11 10 9 9 9 10 10 11 12 12 13 13 14 15 16 17 19 20 18 18 18 19 20 22 23 22 22 24 27 28 28 30 32 34 36 38 36 34 33 32 31 31 30 30 31 32 33 33 33 34 35 35 37 38 37 37 38 38 39 40 42 42 42 42 40 38 38 38 38 38 39 39 39 39
15 15 16 16 16 17 17 16 17 17 17 15 13 12 11 10 9 9 9 9 9 10 11 12 13 14 14 16 17 18 19 19 18 18 18 19 20 21 22 22 21 23 27 28 28 30 31 33 35 38 38 35 33 32 30 29 29 29 30 31 32 32 32 33 33 34 36 38 38 37 38 39 39 40 41 41 42 42 41 39 39 39 39 39 39 39 39 38
15 16 16 16 16 16 16 16 17 17 16 15 14 13 11 10 9 9 9 9 9 10 12 12 13 13 14 16 17 18 19 19 18 18 17 18 20 21 22 21 20 23 26 28 29 30 31 33 34 36 37 36 34 32 30 28 28 29 29 29 30 31 31 32 32 34 35 37 37 38 38 39 39 40 40 41 41 42 41 39 40 40 40 40 40 39 39 39
16 17 17 17 17 17 16 17 17 17 16 16 15 14 12 10 10 9 10 10 11 11 12 12 13 13 14 16 17 19 19 19 18 18 17 18 20 21 21 20 19 22 26 28 30 31 32 34 34 34 35 35 33 31 29 28 27 28 28 28 28 29 30 31 32 33 35 36 37 38 39 40 40 40 40 40 41 41 40 39 40 40 40 40 40 40 40 41
18 18 18 18 18 18 18 18 18 18 17 17 16 14 13 11 11 11 11 11 12 13 12 12 13 14 15 16 18 19 19 19 18 17 17 18 20 21 21 19 19 22 25 27 30 33 34 36 34 32 32 33 32 30 28 27 26 27 27 27 26 27 29 31 32 33 35 37 38 39 39 40 40 39 39 40 40 40 40 39 40 39 40 40 41 41 42 43
20 20 20 20 20 19 19 20 20 19 18 17 16 14 13 13 12 12 12 12 13 13 13 13 14 14 16 17 18 19 19 19 18 17 18 19 21 21 20 18 18 21 24 26 29 32 35 37 36 33 31 32 32 29 28 27 26 26 26 25 26 26 27 30 32 33 35 38 38 39 40 40 41 40 40 39 40 40 40 39 40 39 40 41 42 42 43 44
Wind_Direction
99 99 99 98 97 96 96 95 94 93 92 91 89 88 88 88 88 88 87 88 91 91 86 78 73 67 62 59 59 57 53 50 45 47 51 49 44 36 33 33 30 31 32 33 34 35 36 36 35 34 36 37 36 37 37 38 39 39 41 41 42 42 42 41 38 34 25 13 357 341 329 320 314 308 304 301 299 297 296 294 293 292 292 290 289 288 288 287
102 102 101 100 99 99 98 98 97 96 95 95 94 93 92 92 92 91 90 90 89 84 77 72 69 65 62 61 61 60 56 52 50 53 54 49 46 42 41 40 36 36 37 38 39 39 41 39 37 35 35 37 35 35 35 35 34 34 33 32 32 32 32 33 32 32 30 28 22 12 3 351 341 331 323 317 312 309 305 303 300 299 298 296 294 293 292 291
103 102 102 101 101 100 99 99 98 97 96 96 95 95 94 93 93 92 90 88 84 79 74 71 68 65 64 63 63 64 62 58 56 57 55 51 51 49 47 46 42 40 41 41 41 41 43 41 38 36 36 37 35 34 35 35 33 33 31 29 28 27 26 25 23 22 20 17 13 6 0 353 345 336 329 322 317 312 308 306 303 301 299 296 295 294 292 291
103 103 103 102 102 101 99 98 96 95 95 95 94 93 92 91 90 89 87 84 81 78 74 71 67 65 65 64 64 65 63 61 61 58 56 55 53 50 49 49 44 41 43 42 41 42 42 41 39 36 37 38 35 34 35 34 34 32 30 28 26 24 23 20 17 15 13 9 5 1 357 352 346 340 335 329 324 321 317 313 310 307 303 300 297 294 293 291
104 104 103 102 101 99 97 95 94 93 91 91 90 88 87 86 86 85 84 82 80 78 75 71 67 65 64 64 63 62 61 62 62 59 56 55 52 49 48 49 45 42 42 42 41 42 41 40 39 36 36 37 34 34 35 34 34 31 28 26 23 20 17 14 11 9 7 5 1 357 354 350 346 342 338 333 329 326 323 320 316 313 309 305 302 299 297 296
103 102 100 98 96 95 94 92 90 88 86 84 82 80 79 77 78 78 79 78 76 74 71 69 67 64 59 60 62 62 61 60 58 56 55 53 52 49 47 49 46 42 42 43 42 42 41 40 39 36 35 36 33 34 35 34 33 30 26 23 19 16 13 9 6 5 2 360 356 353 350 346 343 340 337 333 330 327 324 322 319 316 313 309 308 306 304 302
99 98 96 95 94 93 91 88 86 83 80 78 76 74 72 70 70 71 72 71 69 67 66 64 64 64 59 54 61 64 61 57 55 54 52 50 50 47 47 49 45 42 42 42 42 42 41 40 38 35 34 35 33 33 33 32 32 28 25 22 19 16 12 8 6 3 360 356 353 349 347 343 341 338 334 331 328 325 323 321 318 316 314 312 311 310 308 306
96 94 93 92 90 88 86 83 81 78 76 74 71 69 66 63 62 61 63 65 65 64 63 61 61 65 62 51 57 66 62 58 57 55 52 51 50 47 48 48 44 42 41 40 41 41 40 40 37 33 33 33 31 31 30 30 29 25 22 20 18 15 12 10 8 5 1 356 353 349 346 343 340 338 333 330 327 323 320 318 315 314 312 312 311 310 309 308
94 92 90 88 86 84 82 79 77 75 72 70 68 65 62 59 57 54 54 55 57 59 60 60 59 61 61 48 52 66 64 59 58 54 51 50 49 46 46 45 41 40 40 38 39 39 39 39 36 32 33 32 30 30 29 28 26 22 20 18 16 15 13 11 9 6 1 357 354 349 346 342 339 336 332 328 324 320 317 315 313 313 312 311 310 310 309 309
92 90 88 85 83 80 78 75 73 71 69 66 65 63 61 59 57 56 54 51 51 53 54 56 55 56 58 47 51 64 62 59 58 53 50 49 47 46 46 43 39 39 38 36 38 38 38 40 36 30 32 31 29 30 29 28 24 19 18 17 14 13 12 10 7 5 1 358 354 349 345 341 338 334 330 326 322 318 315 314 313 313 312 311 310 310 310 310
89 86 83 81 78 75 73 71 70 68 66 65 63 62 60 58 57 56 54 53 52 53 54 56 59 63 62 53 54 58 57 56 56 52 50 48 46 45 43 40 37 37 36 35 38 39 38 39 33 29 32 30 29 31 29 27 22 18 17 14 12 11 10 8 6 4 360 357 352 348 344 340 338 334 329 325 321 318 316 314 314 312 312 311 310 310 310 310
84 81 79 76 74 72 70 69 68 66 65 64 63 61 60 59 58 56 53 52 54 58 61 61 61 62 60 55 54 54 52 51 49 46 46 48 46 44 40 37 36 36 36 36 38 38 36 35 28 29 32 29 30 31 28 25 21 18 15 12 12 10 9 6 4 2 358 355 350 347 343 339 336 332 328 324 321 319 317 316 314 313 312 312 312 312 312 312
79 77 75 74 72 70 69 67 66 64 63 62 62 61 61 60 59 56 53 51 53 57 59 59 59 57 55 52 49 46 45 45 42 40 44 46 45 41 38 37 36 36 37 37 36 34 33 30 27 30 31 29 30 29 26 24 20 16 13 11 10 7 5 3 1 359 355 352 349 345 341 338 335 332 329 325 323 320 318 317 316 315 315 315 315 315 315 316
77 75 73 72 71 69 68 66 65 64 62 62 62 61 61 61 59 56 54 53 54 54 51 50 50 47 47 46 42 40 41 42 42 44 46 45 42 39 38 38 38 39 40 40 37 34 32 28 27 30 29 27 27 26 24 21 17 14 10 7 5 3 2 358 357 356 352 350 348 344 341 339 336 333 330 327 324 321 320 319 318 318 318 319 319 319 320 321
76 74 72 70 69 68 66 64 63 62 61 61 61 61 60 59 57 54 52 53 56 55 49 47 45 41 43 43 39 40 41 44 47 47 47 44 41 39 38 40 43 44 45 42 38 34 31 26 27 29 25 22 22 20 19 16 13 11 6 2 360 358 357 355 354 352 350 349 347 344 341 338 336 333 331 328 325 324 323 323 322 323 323 324 325 326 328 329
72 71 70 68 67 66 64 62 61 60 59 59 59 59 58 57 55 52 51 52 56 55 51 50 49 47 49 49 46 47 46 47 48 48 48 45 42 41 42 43 43 45 45 40 36 33 28 25 27 26 19 17 17 14 12 11 9 5 0 358 355 354 354 353 352 351 350 347 345 343 340 337 336 334 332 330 328 327 327 326 327 328 329 330 331 333 336 338
68 67 66 65 64 62 61 60 59 59 58 57 57 56 56 54 52 50 49 49 52 52 49 50 52 51 53 54 52 52 49 49 48 48 48 46 45 45 45 44 41 42 41 37 34 31 24 24 26 20 13 14 13 11 9 6 3 358 355 353 352 351 351 350 350 349 347 346 344 342 339 337 336 335 333 332 331 330 329 330 331 333 334 336 338 340 342 343
67 66 65 63 62 60 59 58 57 57 56 55 55 54 54 53 51 51 50 48 50 49 45 47 51 50 49 50 52 53 52 53 53 50 50 49 46 45 43 41 38 37 36 32 30 27 23 22 19 12 11 12 9 7 4 360 356 352 350 348 348 348 347 347 348 347 346 345 343 341 339 338 337 336 334 333 332 331 332 334 336 338 339 341 342 343 344 345
66 64 64 62 61 60 58 57 55 55 55 54 54 54 55 56 54 53 51 50 51 48 43 45 48 48 49 50 53 54 54 54 53 52 52 49 45 42 38 35 32 29 28 27 24 22 19 16 12 10 11 9 4 0 357 354 351 348 346 345 344 344 344 345 345 345 345 343 342 340 339 338 338 337 335 335 334 334 336 338 340 342 343 344 344 344 344 345
63 61 60 59 58 57 56 56 55 55 54 54 55 55 55 54 52 51 49 50 52 50 48 48 47 48 50 52 54 55 54 53 52 50 48 45 41 38 33 30 25 20 21 22 18 15 12 8 7 8 7 2 358 356 354 351 348 345 343 341 340 341 343 344 344 344 344 342 342 341 339 339 339 337 337 337 336 337 339 341 344 345 345 345 344 343 344 345
60 58 57 55 54 54 53 53 53 53 51 51 52 52 52 51 49 48 49 51 52 51 53 53 51 51 51 51 52 53 53 52 50 47 44 40 38 34 29 25 19 16 17 15 12 10 5 3 4 4 1 357 355 353 351 348 346 343 339 338 340 342 343 342 342 342 342 342 342 341 340 339 339 339 339 338 338 340 342 344 346 346 346 345 343 344 345 346
58 56 54 53 51 51 50 50 50 50 49 48 47 48 49 49 49 48 48 50 49 48 50 51 52 53 53 52 52 51 50 49 45 42 39 36 33 29 24 20 17 16 14 9 7 6 2 1 2 1 357 355 354 350 348 346 343 339 338 340 342 342 341 340 340 340 341 342 342 340 340 340 340 340 340 340 341 342 345 346 347 347 345 344 344 346 345 344
56 54 51 49 47 46 46 47 47 47 46 45 44 45 46 46 47 46 45 45 45 45 45 45 47 49 50 49 48 46 43 41 38 34 32 30 26 23 19 16 15 15 10 7 5 3 1 1 360 357 354 353 351 348 345 343 340 339 341 343 343 341 339 339 339 340 341 342 342 341 340 341 342 341 341 342 343 345 347 348 347 346 344 344 345 343 341 338
53 51 49 46 44 43 44 44 44 44 44 42 40 42 43 42 43 43 42 41 41 41 41 41 40 41 41 40 38 38 35 32 30 27 25 21 19 17 15 13 12 11 8 6 3 1 360 358 356 354 353 351 349 346 344 342 342 343 344 343 340 339 338 338 339 339 340 341 342 341 341 342 342 342 343 344 345 347 349 349 347 344 342 341 340 338 336 332
49 48 45 43 42 40 40 40 40 41 41 38 37 38 39 39 39 39 39 39 37 37 38 38 37 36 35 33 32 31 27 24 23 21 17 13 13 13 12 11 10 9 7 4 1 359 358 356 354 353 350 349 348 346 345 345 345 344 343 341 339 339 339 339 339 339 340 341 342 342 341 343 343 343 345 346 348 349 349 349 346 342 339 337 334 332 331 329
43 42 40 38 37 35 34 34 34 36 36 34 33 33 34 34 35 35 35 35 33 32 33 34 35 34 32 32 30 26 22 20 19 16 11 10 10 10 9 7 7 7 4 2 0 359 357 355 353 351 350 350 348 347 347 346 344 342 341 339 339 339 340 339 340 340 340 342 343 342 342 344 344 345 347 348 349 350 350 348 343 339 335 331 328 327 327 328
38 37 35 33 32 31 29 28 28 28 28 27 27 28 28 28 29 30 30 29 28 27 28 28 29 30 30 31 30 26 23 20 17 13 11 10 7 5 5 3 3 4 2 1 360 358 357 355 352 351 351 350 349 349 348 344 341 341 340 340 340 341 340 340 341 341 340 342 343 343 343 344 345 346 348 349 350 350 349 347 342 337 332 328 325 324 326 330
33 32 31 29 27 26 25 24 23 23 22 21 21 21 22 23 23 25 25 24 23 23 23 22 22 22 23 25 24 22 20 16 14 13 11 7 4 2 2 1 1 1 1 360 358 357 356 355 353 353 352 351 350 348 345 341 340 341 341 341 341 341 341 342 343 341 340 341 343 343 344 345 346 347 348 350 350 350 350 347 341 335 331 328 325 324 326 331
26 26 26 25 22 20 20 19 19 18 17 17 16 15 16 17 18 19 19 19 18 17 18 18 18 18 18 19 17 15 13 12 12 11 7 4 2 2 360 359 359 360 360 359 358 357 356 355 355 353 352 351 349 346 343 342 342 342 343 343 342 342 343 343 342 341 340 341 343 344 344 345 346 348 349 350 349 349 349 346 340 333 330 328 327 325 327 330
19 20 20 19 17 15 15 14 13 12 12 13 12 11 11 12 14 14 12 12 12 11 11 13 14 14 15 14 12 11 11 10 10 8 5 3 2 360 357 357 358 359 359 358 357 357 356 355 354 353 352 350 347 346 345 344 344 344 343 343 343 344 344 342 341 342 341 341 343 344 344 344 346 347 348 349 349 348 348 346 340 333 329 329 328 326 325 327
11 13 13 12 10 8 8 8 7 7 7 7 7 7 7 7 8 8 7 6 5 4 4 7 8 9 10 8 6 7 7 7 7 5 4 3 1 358 355 356 357 358 359 358 357 357 355 354 354 354 352 350 349 349 347 346 345 344 343 345 346 345 344 342 343 343 342 342 343 342 343 345 346 347 348 348 348 348 347 346 341 333 329 329 328 326 323 323
1 3 4 3 2 0 360 1 1 1 1 1 1 1 2 1 1 1 2 2 1 1 0 0 2 5 5 4 2 2 3 3 3 2 2 360 358 356 354 354 355 358 359 358 357 355 354 354 355 354 353 352 351 350 348 346 344 344 345 347 347 345 344 343 343 344 343 343 343 342 343 345 346 346 347 347 348 347 346 345 341 334 329 328 327 325 322 321
349 352 353 353 353 353 353 353 355 355 354 355 356 356 356 355 355 355 355 357 358 359 358 357 357 0 2 1 1 0 1 1 360 359 359 357 355 353 353 354 356 358 359 357 355 353 353 356 356 354 354 353 352 350 348 346 344 346 347 348 347 346 344 344 344 345 344 344 343 342 344 346 346 347 347 346 346 346 345 343 341 336 330 327 325 323 321 320
336 338 341 343 344 346 346 347 348 348 348 349 350 351 351 349 349 349 350 351 353 355 356 355 353 355 358 358 358 357 359 359 357 355 355 354 354 353 353 354 357 358 358 355 353 352 353 356 356 355 354 353 352 350 349 347 346 347 348 349 348 347 345 345 345 346 345 344 344 342 344 346 345 347 347 345 345 345 344 343 341 338 333 328 324 322 321 320
324 327 330 333 336 338 339 341 341 342 343 344 345 346 345 344 343 344 345 346 349 351 353 353 351 349 352 354 353 353 354 356 354 352 353 353 353 353 353 355 357 357 355 353 351 351 353 356 356 356 356 355 353 351 350 348 347 348 349 350 349 347 346 345 345 346 345 345 344 343 343 345 345 346 346 345 343 343 344 343 341 339 336 331 326 323 322 322
314 318 322 325 329 331 332 334 334 336 338 339 340 341 341 340 339 340 341 342 344 346 348 351 350 346 345 348 349 348 351 353 351 350 352 353 352 353 353 355 356 355 352 351 351 351 354 357 357 357 357 356 354 352 351 350 349 349 349 349 349 348 347 346 345 346 346 345 346 344 343 344 345 344 345 344 342 341 343 343 341 339 336 332 328 325 324 324
305 310 316 320 322 324 326 327 327 330 333 335 335 336 336 337 336 336 338 339 340 341 344 347 348 345 342 343 345 346 348 350 349 350 351 352 352 352 352 353 354 352 349 349 351 352 356 358 358 358 358 357 355 353 352 352 351 350 349 349 350 349 347 347 346 346 347 347 347 345 343 344 345 343 343 343 341 341 342 343 341 338 336 334 329 327 327 326
300 305 310 313 316 318 320 320 321 324 327 329 330 331 332 332 332 333 335 337 337 337 339 342 345 345 343 342 342 344 346 348 349 350 351 353 353 351 350 351 351 349 348 349 351 354 357 358 359 0 359 357 355 353 352 353 353 351 350 349 350 349 348 348 347 347 347 348 349 347 343 344 345 343 343 342 341 342 343 343 341 338 337 335 331 330 331 330
297 301 306 308 310 313 314 315 316 319 322 324 325 326 327 328 328 329 332 334 334 333 334 337 340 343 343 343 342 343 346 347 349 350 352 353 352 349 348 349 348 347 348 351 352 354 358 359 359 1 0 357 354 353 353 354 354 352 350 349 350 349 348 349 349 348 348 348 349 348 344 345 345 344 343 342 341 343 345 345 342 339 338 335 333 333 334 333
295 298 302 303 305 308 309 310 312 314 316 318 319 321 323 324 324 326 329 331 331 331 331 333 336 339 342 342 341 343 345 346 348 350 351 352 350 348 348 347 346 346 349 351 352 355 360 2 1 1 1 357 354 354 354 354 354 353 350 349 350 349 348 349 350 349 349 347 347 347 345 345 345 344 344 343 342 345 348 347 344 340 338 336 335 337 337 336
293 296 297 298 300 303 303 305 308 311 313 314 314 316 319 321 322 324 328 330 330 331 332 333 335 336 339 340 340 342 345 346 348 349 351 350 348 347 347 346 345 345 348 351 352 354 360 3 3 1 0 357 354 353 354 355 354 353 351 350 350 350 348 349 350 351 350 348 347 347 346 345 345 345 345 344 343 347 350 349 344 340 338 338 338 339 338 337
292 293 293 293 295 298 299 302 306 308 310 311 309 311 316 320 322 324 329 330 331 334 335 335 335 336 338 338 338 341 344 345 347 348 350 348 346 346 345 344 345 346 349 350 352 356 360 3 4 2 0 358 353 353 354 354 354 353 351 350 351 351 349 349 351 351 350 348 348 347 345 345 346 346 346 345 345 349 352 350 345 340 339 339 339 338 337 336
290 289 288 288 290 292 295 300 304 306 308 308 305 306 313 319 322 324 328 330 333 338 338 335 335 336 337 338 337 339 342 344 346 347 348 346 345 345 344 344 346 349 351 351 353 357 359 1 3 2 359 357 353 352 353 354 355 354 352 351 352 352 350 349 351 351 350 349 348 347 345 345 346 346 347 347 346 350 352 349 344 341 339 338 337 336 336 335
288 286 284 283 284 287 291 297 301 304 307 306 300 302 311 318 321 323 325 329 334 337 336 335 335 336 337 337 337 338 341 344 345 345 345 345 345 344 343 345 348 351 353 353 355 358 358 358 0 360 357 355 352 351 352 355 356 356 353 351 352 353 350 349 351 351 350 349 348 348 347 345 345 347 348 348 347 349 351 348 344 341 338 337 336 336 336 335
286 284 281 280 280 283 287 293 298 303 306 302 296 298 308 315 317 317 320 326 332 334 334 335 337 338 338 336 335 337 340 343 343 343 344 344 344 343 342 345 349 352 354 354 356 358 357 355 355 357 356 353 351 351 353 356 357 357 354 351 351 353 349 348 351 351 350 351 349 349 350 347 345 346 349 349 348 349 350 347 342 340 338 337 336 335 336 336
289 287 285 283 281 280 283 287 294 302 305 298 290 294 305 310 309 310 316 323 329 332 333 335 337 337 336 334 334 336 339 340 341 341 343 343 342 341 341 344 350 353 355 355 357 359 357 353 351 353 354 351 350 352 354 357 357 356 355 352 351 353 349 348 351 352 351 352 351 349 350 350 347 347 349 349 348 349 350 346 342 339 338 337 336 336 336 337
295 294 292 290 286 282 281 284 291 300 302 294 286 290 299 301 300 305 314 321 326 329 330 333 335 334 333 332 332 334 336 337 338 339 340 341 340 338 339 343 349 354 355 355 357 359 357 353 350 349 350 350 349 350 354 357 357 356 356 353 351 352 349 348 352 353 351 352 353 351 351 351 350 349 350 350 349 350 350 347 344 343 341 339 338 338 339 340
299 299 298 297 292 285 281 281 287 296 299 293 286 288 291 291 295 303 310 316 321 324 325 328 330 329 329 329 329 331 333 334 335 336 337 338 337 336 337 341 347 354 356 355 357 358 356 354 351 347 347 348 348 350 354 356 356 355 356 354 353 350 348 349 353 355 354 353 353 353 352 352 352 350 350 350 349 350 351 349 346 346 345 343 342 342 342 343
298 300 302 301 297 290 282 280 284 292 296 292 287 286 285 284 288 296 303 308 312 315 317 321 324 325 326 326 327 328 330 330 331 333 334 335 335 334 336 339 346 354 356 354 355 356 355 354 352 347 345 347 348 349 353 355 354 354 355 355 353 348 346 351 356 356 356 355 354 355 354 352 352 350 349 349 349 350 351 349 347 348 347 346 345 345 345 346
294 298 301 302 300 294 285 280 282 289 293 291 285 282 279 277 281 288 293 299 302 305 309 314 319 322 323 324 325 326 326 327 328 331 331 332 332 333 335 338 345 353 355 353 353 354 353 352 352 349 345 345 347 348 351 354 353 352 355 355 352 346 345 352 357 358 358 357 357 358 356 352 351 350 349 349 348 350 351 349 348 349 348 347 347 347 347 348
291 294 297 299 299 296 288 282 282 287 291 288 282 276 272 272 276 281 286 292 295 297 303 311 317 320 321 322 322 322 323 324 325 327 329 330 331 332 333 336 344 353 355 354 352 351 350 349 350 349 345 343 346 348 349 352 352 352 355 354 349 347 347 352 358 359 359 359 359 359 357 353 351 349 348 348 347 348 351 350 349 349 348 347 347 347 347 348
288 291 293 295 295 294 289 284 282 286 289 286 278 272 269 270 274 278 282 286 289 294 303 312 316 319 320 321 321 320 320 321 323 325 327 329 330 331 332 334 342 352 355 354 351 349 347 347 347 348 345 343 345 347 347 350 351 352 355 351 347 348 348 351 358 0 360 0 360 359 357 353 351 349 348 347 346 346 349 350 349 349 348 347 347 347 347 348
Height
5847 5847 5847 5848 5848 5848 5848 5849 5849 5849 5849 5849 5849 5849 5849 5849 5849 5849 5848 5848 5848 5848 5848 5848 5847 5847 5846 5845 5845 5844 5843 5842 5841 5839 5838 5840 5842 5841 5840 5839 5838 5836 5835 5834 5833 5831 5830 5828 5827 5826 5825 5824 5823 5822 5821 5820 5819 5818 5817 5816 5816 5815 5814 5813 5812 5811 5811 5810 5809 5809 5808 5807 5806 5805 5804 5803 5802 5801 5800 5799 5797 5796 5795 5793 5792 5790 5789 5787
5848 5848 5849 5849 5849 5850 5850 5850 5850 5850 5850 5850 5850 5850 5850 5850 5850 5849 5849 5849 5849 5849 5849 5848 5847 5847 5846 5846 5845 5844 5843 5843 5842 5841 5842 5843 5842 5841 5840 5839 5838 5837 5836 5835 5834 5833 5831 5829 5828 5827 5826 5825 5824 5823 5822 5821 5820 5819 5818 5817 5816 5815 5815 5814 5813 5812 5811 5810 5809 5808 5807 5806 5805 5804 5803 5802 5801 5799 5798 5797 5795 5794 5792 5790 5788 5787 5785 5783
5850 5850 5850 5850 5851 5851 5851 5851 5851 5852 5851 5851 5851 5851 5851 5851 5851 5850 5850 5850 5850 5849 5849 5848 5848 5847 5847 5847 5846 5846 5846 5845 5844 5844 5844 5843 5843 5842 5841 5840 5839 5838 5837 5836 5835 5833 5831 5830 5829 5828 5827 5825 5824 5824 5823 5822 5821 5820 5819 5818 5817 5816 5815 5814 5813 5812 5811 5810 5809 5808 5807 5806 5805 5804 5802 5801 5800 5798 5797 5795 5793 5792 5790 5788 5786 5784 5782 5781
5851 5852 5852 5852 5852 5853 5853 5853 5853 5853 5853 5853 5853 5852 5852 5852 5852 5851 5851 5851 5850 5850 5849 5849 5849 5848 5848 5848 5847 5847 5847 5845 5845 5845 5845 5844 5843 5843 5842 5841 5840 5839 5838 5836 5835 5834 5832 5831 5830 5829 5828 5826 5825 5825 5823 5822 5822 5820 5820 5819 5818 5817 5816 5815 5814 5813 5812 5811 5809 5808 5807 5806 5805 5803 5802 5800 5799 5797 5795 5794 5792 5790 5788 5786 5784 5782 5780 5778
5853 5853 5854 5854 5854 5854 5855 5855 5855 5855 5854 5854 5854 5854 5854 5853 5853 5853 5852 5852 5851 5851 5850 5850 5850 5849 5849 5848 5848 5848 5847 5846 5846 5846 5845 5845 5844 5843 5843 5841 5841 5840 5838 5837 5836 5835 5834 5833 5831 5831 5829 5828 5827 5826 5824 5823 5822 5821 5820 5819 5818 5817 5816 5815 5814 5813 5812 5810 5809 5808 5807 5805 5804 5802 5801 5799 5797 5796 5794 5792 5790 5788 5786 5784 5781 5779 5777 5775
5855 5856 5856 5856 5856 5856 5857 5857 5857 5857 5856 5856 5856 5856 5855 5855 5854 5854 5853 5853 5852 5852 5851 5851 5850 5850 5850 5850 5850 5848 5847 5847 5847 5847 5846 5846 5845 5844 5844 5842 5841 5841 5839 5838 5837 5836 5835 5834 5832 5831 5830 5829 5828 5827 5826 5825 5823 5822 5821 5820 5819 5818 5816 5815 5814 5813 5812 5810 5809 5808 5806 5805 5803 5802 5800 5798 5796 5794 5792 5790 5788 5785 5783 5781 5779 5776 5774 5772
5858 5858 5858 5858 5859 5859 5859 5859 5859 5858 5858 5858 5857 5857 5857 5856 5856 5855 5855 5854 5853 5853 5852 5852 5851 5850 5851 5852 5851 5849 5848 5848 5848 5847 5847 5846 5845 5845 5845 5843 5842 5842 5840 5839 5838 5837 5836 5834 5833 5833 5832 5830 5829 5828 5827 5825 5824 5822 5821 5820 5819 5818 5817 5816 5814 5813 5812 5810 5809 5807 5806 5804 5803 5801 5799 5797 5795 5793 5790 5788 5786 5783 5781 5778 5776 5773 5771 5768
5860 5861 5861 5861 5861 5861 5861 5861 5861 5860 5860 5859 5859 5858 5858 5857 5856 5856 5855 5855 5854 5854 5853 5853 5852 5851 5852 5853 5852 5849 5849 5850 5849 5849 5849 5848 5847 5847 5845 5844 5844 5843 5841 5840 5839 5838 5836 5835 5834 5834 5833 5831 5830 5829 5827 5826 5824 5823 5822 5821 5819 5818 5817 5816 5815 5813 5812 5810 5809 5807 5805 5803 5802 5800 5798 5796 5794 5791 5789 5786 5783 5781 5778 5776 5773 5770 5767 5764
5863 5863 5863 5863 5863 5863 5863 5863 5862 5862 5862 5861 5860 5860 5859 5858 5857 5857 5856 5855 5855 5855 5854 5854 5853 5852 5852 5854 5853 5851 5851 5851 5850 5850 5850 5849 5849 5848 5845 5844 5845 5844 5842 5842 5840 5838 5837 5836 5836 5835 5834 5832 5832 5830 5828 5826 5825 5824 5823 5821 5820 5819 5818 5816 5815 5813 5812 5810 5809 5807 5805 5803 5801 5799 5797 5795 5792 5790 5787 5784 5781 5778 5775 5772 5769 5766 5764 5761
5865 5865 5865 5865 5865 5865 5864 5864 5864 5863 5863 5862 5862 5861 5860 5860 5859 5859 5858 5857 5856 5855 5855 5854 5854 5854 5853 5855 5854 5852 5852 5852 5852 5851 5851 5851 5850 5847 5846 5846 5846 5844 5844 5843 5840 5839 5839 5838 5837 5837 5835 5834 5833 5831 5829 5827 5826 5825 5823 5822 5821 5819 5818 5816 5815 5814 5812 5810 5809 5807 5805 5803 5801 5798 5796 5794 5791 5788 5785 5782 5778 5775 5772 5769 5766 5763 5760 5757
5867 5867 5867 5866 5866 5866 5866 5865 5865 5865 5864 5864 5863 5862 5862 5861 5861 5860 5860 5859 5858 5857 5856 5856 5856 5855 5855 5856 5855 5853 5853 5853 5853 5852 5852 5852 5849 5847 5847 5847 5846 5845 5844 5843 5841 5841 5840 5839 5839 5838 5836 5835 5834 5832 5829 5828 5827 5825 5824 5823 5821 5819 5818 5816 5815 5814 5812 5810 5808 5806 5804 5802 5799 5797 5794 5792 5789 5786 5782 5779 5776 5772 5769 5766 5763 5759 5756 5753
5868 5868 5868 5868 5868 5867 5867 5867 5866 5866 5865 5865 5864 5864 5863 5863 5862 5861 5861 5860 5859 5859 5858 5858 5857 5857 5857 5856 5855 5854 5854 5854 5853 5853 5853 5851 5849 5849 5849 5848 5847 5846 5845 5844 5843 5842 5841 5840 5840 5838 5836 5836 5834 5831 5830 5829 5828 5826 5824 5823 5821 5819 5818 5816 5815 5813 5811 5809 5807 5805 5803 5800 5798 5795 5792 5789 5786 5783 5779 5776 5773 5769 5766 5762 5759 5756 5753 5749
5870 5870 5870 5869 5869 5869 5868 5868 5868 5867 5867 5867 5866 5865 5865 5864 5863 5862 5862 5861 5860 5860 5859 5859 5858 5858 5858 5856 5855 5855 5854 5853 5853 5854 5853 5851 5850 5850 5850 5849 5848 5847 5846 5844 5844 5843 5843 5842 5841 5838 5837 5835 5833 5832 5831 5829 5828 5826 5824 5822 5821 5819 5817 5816 5814 5812 5810 5808 5806 5803 5801 5798 5796 5793 5790 5786 5783 5780 5777 5773 5770 5766 5762 5759 5756 5752 5749 5746
5871 5871 5871 5871 5870 5870 5870 5870 5869 5869 5868 5868 5867 5866 5866 5865 5864 5864 5863 5863 5862 5861 5860 5859 5858 5858 5857 5856 5856 5855 5854 5855 5856 5855 5853 5851 5852 5851 5850 5850 5849 5848 5847 5846 5845 5845 5843 5842 5840 5837 5836 5835 5833 5833 5831 5829 5828 5826 5824 5822 5821 5819 5817 5815 5813 5811 5809 5806 5804 5802 5799 5796 5793 5790 5787 5784 5781 5777 5774 5770 5767 5763 5759 5756 5752 5749 5745 5742
5873 5873 5872 5872 5872 5872 5872 5871 5871 5870 5869 5869 5868 5868 5867 5866 5865 5865 5864 5864 5863 5862 5861 5860 5859 5859 5857 5857 5857 5857 5857 5857 5856 5854 5853 5853 5853 5852 5852 5851 5850 5849 5848 5847 5846 5844 5843 5842 5839 5837 5836 5835 5834 5833 5831 5829 5827 5825 5823 5821 5820 5818 5816 5814 5811 5809 5807 5804 5802 5799 5797 5794 5791 5788 5785 5782 5778 5775 5771 5767 5764 5760 5756 5752 5749 5745 5742 5738
5874 5874 5874 5874 5874 5873 5873 5872 5872 5871 5871 5870 5870 5869 5868 5867 5866 5866 5866 5866 5864 5863 5863 5862 5862 5861 5860 5860 5860 5859 5859 5857 5856 5855 5855 5855 5854 5853 5853 5851 5850 5849 5847 5846 5845 5843 5843 5841 5839 5837 5837 5836 5834 5832 5830 5828 5826 5824 5823 5821 5819 5817 5814 5812 5810 5808 5805 5803 5800 5797 5795 5792 5789 5786 5783 5779 5775 5772 5768 5764 5760 5756 5753 5749 5745 5741 5738 5735
5876 5876 5875 5875 5875 5875 5874 5874 5873 5873 5872 5871 5871 5870 5869 5868 5868 5868 5867 5866 5865 5864 5864 5864 5863 5862 5862 5862 5861 5860 5858 5857 5856 5856 5856 5855 5855 5854 5853 5851 5850 5848 5847 5846 5845 5844 5843 5840 5838 5838 5837 5836 5833 5831 5829 5827 5826 5824 5822 5820 5818 5816 5814 5811 5809 5806 5804 5801 5798 5795 5793 5790 5787 5783 5780 5776 5772 5768 5764 5761 5757 5753 5749 5745 5741 5738 5735 5732
5877 5877 5877 5877 5876 5876 5875 5875 5874 5873 5873 5872 5872 5871 5869 5869 5869 5869 5868 5867 5865 5865 5865 5864 5863 5863 5863 5862 5860 5859 5859 5858 5858 5857 5857 5856 5855 5854 5852 5851 5850 5849 5848 5847 5845 5844 5842 5840 5839 5839 5837 5834 5832 5830 5829 5827 5826 5824 5821 5819 5817 5815 5813 5810 5808 5805 5802 5799 5797 5794 5790 5787 5784 5780 5777 5773 5769 5765 5761 5757 5753 5749 5745 5741 5738 5735 5733 5731
5879 5879 5878 5878 5878 5877 5877 5876 5875 5875 5874 5873 5873 5872 5871 5871 5871 5870 5870 5868 5866 5866 5866 5865 5864 5864 5863 5862 5861 5861 5860 5859 5859 5858 5857 5856 5855 5854 5853 5852 5851 5850 5849 5847 5845 5843 5841 5840 5839 5837 5835 5833 5832 5830 5829 5827 5825 5823 5820 5818 5816 5814 5812 5809 5807 5804 5801 5798 5795 5792 5788 5785 5782 5778 5774 5770 5766 5762 5758 5754 5750 5746 5742 5739 5736 5733 5731 5729
5880 5880 5880 5879 5879 5878 5878 5877 5877 5876 5875 5875 5874 5874 5873 5873 5872 5871 5870 5868 5868 5869 5868 5867 5866 5866 5864 5864 5863 5862 5861 5860 5860 5859 5858 5857 5855 5854 5854 5853 5852 5851 5849 5846 5845 5843 5842 5841 5839 5837 5835 5834 5832 5830 5828 5826 5824 5822 5819 5817 5815 5813 5810 5808 5805 5802 5799 5796 5793 5790 5786 5783 5779 5776 5772 5768 5764 5759 5755 5751 5747 5743 5740 5737 5734 5732 5730 5728
5882 5881 5881 5880 5880 5880 5879 5879 5878 5877 5877 5876 5876 5875 5874 5873 5872 5871 5870 5870 5870 5871 5870 5869 5868 5867 5865 5865 5863 5863 5863 5862 5861 5860 5859 5858 5857 5856 5855 5854 5853 5851 5848 5847 5845 5843 5842 5840 5838 5836 5835 5833 5831 5829 5827 5825 5823 5821 5819 5817 5814 5811 5809 5806 5803 5800 5798 5794 5791 5788 5784 5781 5777 5773 5769 5765 5761 5757 5753 5748 5745 5741 5738 5735 5733 5731 5729 5727
5883 5882 5882 5882 5881 5881 5880 5880 5879 5878 5878 5877 5877 5876 5875 5874 5873 5873 5872 5872 5872 5871 5870 5870 5869 5868 5867 5866 5865 5865 5865 5863 5862 5861 5860 5859 5858 5857 5856 5854 5853 5851 5849 5848 5846 5844 5842 5840 5838 5836 5834 5832 5830 5828 5826 5824 5822 5820 5818 5815 5812 5810 5807 5805 5802 5799 5796 5793 5789 5786 5782 5779 5775 5771 5767 5763 5759 5755 5750 5746 5743 5740 5737 5734 5732 5730 5728 5726
5884 5884 5883 5883 5882 5882 5881 5881 5880 5880 5879 5878 5878 5877 5876 5875 5874 5874 5874 5873 5872 5872 5871 5871 5870 5869 5868 5867 5867 5866 5865 5863 5862 5862 5861 5859 5858 5857 5856 5854 5852 5851 5849 5847 5845 5843 5841 5839 5837 5836 5833 5831 5829 5827 5825 5823 5821 5819 5816 5813 5810 5808 5806 5803 5800 5797 5794 5791 5788 5784 5780 5777 5773 5769 5765 5761 5757 5752 5748 5745 5741 5738 5735 5733 5731 5729 5727 5725
5885 5885 5885 5884 5884 5883 5883 5882 5882 5881 5880 5879 5878 5877 5877 5876 5876 5875 5874 5874 5873 5872 5872 5871 5870 5869 5868 5867 5867 5865 5864 5864 5863 5862 5860 5859 5858 5857 5855 5853 5851 5850 5848 5846 5844 5843 5841 5839 5837 5835 5833 5831 5828 5826 5824 5821 5819 5816 5814 5811 5809 5807 5804 5802 5799 5795 5792 5789 5786 5782 5778 5774 5771 5767 5763 5759 5755 5750 5746 5743 5740 5737 5734 5732 5730 5728 5726 5724
5887 5886 5886 5885 5885 5884 5884 5883 5882 5882 5881 5880 5879 5878 5877 5877 5876 5876 5875 5874 5873 5873 5872 5871 5870 5869 5868 5867 5866 5865 5865 5864 5863 5861 5860 5860 5858 5856 5855 5853 5851 5849 5848 5846 5844 5842 5841 5839 5837 5835 5832 5830 5827 5825 5822 5819 5817 5814 5812 5810 5808 5805 5803 5800 5797 5793 5790 5787 5784 5780 5776 5772 5769 5765 5761 5757 5753 5748 5745 5741 5738 5736 5733 5731 5729 5727 5725 5722
5887 5887 5887 5886 5886 5885 5884 5884 5883 5882 5882 5881 5880 5879 5878 5878 5877 5876 5875 5875 5874 5873 5872 5871 5870 5869 5868 5867 5866 5866 5865 5864 5863 5862 5861 5860 5858 5856 5854 5853 5851 5849 5848 5846 5844 5842 5840 5838 5836 5834 5831 5829 5826 5823 5820 5817 5815 5813 5811 5808 5806 5803 5801 5798 5795 5791 5788 5784 5782 5778 5774 5770 5767 5763 5759 5755 5751 5747 5743 5740 5738 5735 5732 5730 5728 5725 5723 5720
5888 5888 5887 5887 5886 5886 5885 5884 5884 5883 5882 5881 5880 5880 5879 5878 5877 5877 5876 5875 5874 5873 5872 5872 5871 5870 5869 5868 5867 5866 5865 5864 5863 5862 5861 5859 5857 5856 5854 5853 5851 5849 5847 5845 5843 5841 5839 5837 5835 5833 5830 5827 5824 5821 5818 5816 5814 5812 5809 5807 5804 5801 5799 5796 5793 5789 5785 5782 5780 5777 5772 5768 5764 5761 5757 5753 5749 5746 5742 5739 5736 5734 5731 5729 5726 5724 5722 5719
5888 5888 5888 5887 5887 5886 5886 5885 5884 5883 5883 5882 5881 5880 5880 5879 5878 5877 5876 5876 5875 5874 5873 5872 5871 5870 5869 5868 5867 5866 5865 5864 5863 5862 5860 5858 5857 5855 5854 5852 5850 5848 5846 5844 5842 5840 5838 5836 5833 5831 5828 5825 5823 5820 5818 5816 5813 5811 5808 5805 5802 5800 5797 5794 5791 5788 5784 5781 5778 5774 5770 5766 5763 5759 5755 5752 5748 5744 5741 5738 5735 5732 5730 5727 5725 5722 5720 5718
5888 5888 5888 5887 5887 5886 5886 5885 5885 5884 5883 5882 5881 5881 5880 5879 5878 5878 5877 5876 5875 5874 5873 5872 5871 5870 5869 5868 5867 5866 5865 5864 5862 5861 5860 5858 5856 5854 5853 5851 5849 5847 5845 5843 5841 5839 5836 5834 5832 5829 5827 5824 5822 5820 5817 5815 5812 5809 5807 5804 5801 5798 5795 5792 5790 5787 5783 5779 5775 5772 5768 5765 5761 5757 5754 5750 5746 5743 5739 5736 5733 5730 5728 5725 5723 5721 5719 5716
5888 5888 5888 5887 5887 5886 5886 5885 5885 5884 5883 5882 5882 5881 5880 5880 5879 5878 5877 5876 5875 5874 5873 5872 5871 5870 5869 5868 5867 5866 5865 5864 5862 5861 5859 5858 5856 5854 5852 5850 5848 5846 5844 5842 5840 5837 5835 5833 5831 5828 5826 5823 5821 5818 5816 5813 5811 5808 5806 5803 5800 5797 5794 5791 5788 5785 5781 5777 5774 5771 5767 5763 5760 5756 5752 5748 5745 5741 5738 5735 5732 5729 5726 5723 5721 5719 5717 5715
5888 5888 5887 5887 5887 5886 5886 5885 5885 5884 5883 5882 5882 5881 5880 5879 5879 5878 5877 5876 5875 5873 5872 5871 5870 5869 5868 5868 5867 5866 5865 5864 5862 5861 5859 5857 5855 5853 5850 5848 5847 5845 5843 5841 5839 5837 5834 5832 5830 5827 5825 5822 5820 5817 5815 5812 5810 5808 5805 5802 5799 5795 5792 5789 5786 5783 5780 5776 5772 5769 5766 5762 5758 5754 5751 5747 5743 5740 5736 5733 5730 5727 5724 5721 5719 5717 5715 5712
5888 5888 5887 5887 5887 5886 5886 5885 5884 5884 5883 5882 5881 5881 5880 5879 5878 5877 5876 5875 5874 5873 5872 5871 5870 5869 5868 5867 5866 5865 5864 5863 5861 5860 5858 5856 5854 5852 5850 5848 5846 5844 5843 5840 5838 5836 5834 5831 5828 5826 5823 5821 5818 5816 5813 5811 5809 5807 5804 5801 5798 5794 5791 5788 5785 5782 5778 5775 5771 5768 5764 5761 5757 5753 5749 5745 5742 5738 5735 5732 5729 5726 5723 5720 5717 5715 5712 5710
5887 5887 5887 5887 5886 5886 5885 5885 5884 5883 5883 5882 5881 5880 5880 5879 5878 5877 5876 5875 5874 5872 5871 5870 5869 5868 5867 5866 5865 5864 5863 5862 5861 5860 5858 5856 5854 5852 5849 5847 5845 5844 5842 5840 5837 5835 5833 5830 5827 5825 5822 5819 5817 5815 5812 5810 5808 5805 5802 5800 5797 5794 5790 5787 5784 5781 5777 5773 5770 5766 5763 5759 5755 5752 5747 5743 5740 5736 5733 5730 5727 5724 5721 5718 5715 5712 5710 5707
5887 5887 5886 5886 5886 5885 5885 5884 5884 5883 5882 5881 5881 5880 5879 5878 5877 5876 5875 5874 5873 5872 5871 5870 5869 5868 5867 5866 5865 5864 5863 5862 5861 5859 5858 5856 5853 5851 5849 5847 5845 5843 5841 5839 5837 5834 5831 5829 5826 5824 5821 5818 5816 5814 5812 5809 5806 5804 5801 5799 5796 5792 5788 5785 5782 5780 5776 5772 5768 5764 5761 5758 5754 5750 5746 5741 5738 5735 5731 5728 5725 5722 5719 5716 5713 5710 5707 5705
5886 5886 5886 5885 5885 5885 5884 5884 5883 5882 5881 5881 5880 5879 5878 5877 5876 5875 5874 5873 5872 5871 5870 5869 5868 5867 5866 5865 5864 5863 5862 5861 5860 5858 5856 5854 5852 5850 5848 5846 5844 5843 5841 5839 5836 5833 5831 5828 5825 5823 5820 5817 5815 5813 5811 5808 5805 5802 5800 5797 5795 5791 5788 5784 5781 5779 5776 5772 5768 5763 5759 5756 5753 5749 5745 5740 5736 5733 5730 5727 5723 5720 5717 5714 5711 5708 5705 5702
5886 5885 5885 5885 5884 5884 5883 5883 5882 5881 5881 5880 5879 5878 5877 5876 5875 5874 5873 5872 5871 5870 5869 5868 5867 5866 5865 5865 5863 5862 5861 5860 5859 5857 5855 5853 5851 5849 5847 5845 5843 5842 5840 5838 5835 5832 5829 5827 5824 5821 5819 5816 5814 5812 5809 5807 5804 5801 5798 5796 5793 5790 5787 5784 5781 5778 5775 5771 5767 5763 5759 5755 5751 5747 5744 5740 5735 5731 5728 5725 5722 5718 5715 5711 5708 5705 5702 5699
5885 5885 5884 5884 5883 5883 5882 5882 5881 5880 5880 5879 5878 5877 5876 5875 5874 5873 5872 5871 5870 5869 5868 5867 5866 5865 5864 5864 5863 5862 5860 5859 5858 5856 5855 5852 5850 5848 5846 5844 5842 5841 5839 5836 5834 5831 5828 5826 5823 5820 5817 5815 5813 5811 5808 5806 5803 5799 5796 5794 5792 5788 5785 5782 5779 5777 5774 5771 5767 5762 5757 5754 5750 5746 5742 5738 5734 5730 5727 5724 5720 5716 5713 5709 5706 5702 5699 5697
5884 5883 5883 5883 5882 5882 5881 5880 5880 5879 5879 5878 5877 5876 5875 5874 5873 5872 5871 5870 5869 5868 5867 5866 5865 5864 5863 5862 5862 5861 5860 5858 5857 5856 5854 5851 5849 5847 5845 5843 5842 5840 5838 5835 5832 5830 5827 5825 5822 5819 5816 5814 5811 5809 5807 5804 5801 5798 5795 5792 5789 5786 5783 5780 5777 5774 5772 5769 5766 5762 5756 5752 5749 5744 5740 5736 5732 5729 5725 5722 5718 5714 5711 5707 5703 5700 5697 5694
5882 5882 5882 5881 5881 5880 5880 5879 5878 5878 5877 5876 5875 5874 5873 5872 5871 5870 5869 5869 5867 5866 5866 5865 5864 5863 5862 5861 5860 5860 5859 5858 5856 5855 5853 5851 5848 5846 5844 5842 5841 5839 5837 5834 5831 5829 5826 5823 5821 5818 5815 5813 5810 5808 5806 5803 5800 5797 5793 5790 5788 5784 5781 5778 5775 5772 5769 5766 5764 5760 5755 5751 5747 5743 5739 5734 5730 5727 5724 5720 5716 5713 5709 5705 5701 5698 5695 5692
5881 5881 5880 5880 5879 5879 5878 5878 5877 5876 5876 5875 5874 5873 5872 5871 5870 5869 5868 5867 5866 5865 5864 5863 5862 5862 5861 5860 5860 5859 5858 5857 5855 5854 5852 5850 5848 5846 5844 5842 5840 5838 5835 5833 5830 5828 5825 5822 5819 5817 5814 5812 5809 5807 5804 5801 5799 5795 5792 5789 5786 5783 5780 5777 5774 5771 5767 5764 5760 5757 5753 5749 5745 5741 5737 5733 5729 5725 5722 5718 5715 5711 5707 5703 5700 5696 5693 5690
5879 5879 5879 5878 5878 5877 5877 5876 5875 5875 5874 5873 5872 5872 5871 5869 5868 5867 5867 5866 5865 5864 5863 5862 5861 5861 5860 5860 5859 5858 5857 5856 5855 5853 5851 5849 5847 5845 5843 5841 5839 5837 5835 5832 5829 5826 5824 5821 5818 5816 5813 5811 5808 5805 5803 5800 5797 5794 5791 5788 5785 5782 5779 5776 5773 5770 5766 5762 5758 5755 5751 5747 5743 5739 5735 5731 5727 5723 5720 5717 5713 5709 5705 5702 5698 5694 5691 5688
5877 5877 5876 5876 5876 5875 5875 5874 5874 5873 5872 5872 5871 5870 5869 5868 5867 5866 5865 5865 5864 5863 5862 5861 5860 5860 5859 5859 5858 5857 5856 5855 5854 5852 5850 5849 5846 5845 5843 5841 5839 5837 5834 5831 5829 5826 5823 5820 5818 5815 5812 5810 5806 5804 5801 5799 5796 5793 5790 5787 5784 5781 5777 5774 5771 5768 5765 5761 5757 5753 5749 5745 5741 5737 5733 5729 5725 5721 5718 5715 5711 5707 5703 5700 5696 5693 5689 5686
5874 5874 5874 5874 5874 5873 5873 5872 5872 5871 5871 5870 5869 5868 5868 5867 5866 5865 5864 5863 5863 5862 5861 5860 5859 5859 5858 5858 5857 5857 5856 5854 5853 5851 5850 5848 5846 5844 5843 5841 5839 5837 5834 5831 5828 5825 5822 5820 5817 5814 5812 5809 5806 5803 5800 5798 5795 5792 5788 5785 5783 5780 5776 5773 5770 5766 5763 5759 5756 5752 5747 5743 5739 5735 5731 5727 5723 5719 5716 5712 5709 5706 5702 5698 5695 5691 5688 5684
5872 5871 5871 5871 5871 5871 5871 5870 5870 5869 5868 5868 5867 5867 5866 5865 5864 5864 5863 5862 5861 5861 5860 5859 5858 5858 5857 5857 5856 5856 5855 5854 5852 5850 5849 5847 5845 5843 5842 5840 5838 5836 5833 5830 5827 5825 5822 5819 5816 5814 5811 5808 5805 5802 5799 5797 5794 5791 5787 5784 5782 5779 5775 5772 5769 5766 5762 5759 5755 5751 5746 5741 5736 5733 5729 5725 5721 5717 5714 5711 5707 5704 5700 5697 5693 5690 5686 5683
5869 5869 5868 5869 5869 5869 5868 5868 5868 5867 5866 5866 5865 5865 5864 5864 5863 5862 5862 5861 5860 5860 5859 5858 5857 5857 5856 5856 5855 5854 5853 5852 5851 5849 5847 5846 5844 5842 5841 5839 5837 5834 5832 5829 5826 5824 5821 5818 5816 5813 5810 5807 5804 5800 5797 5795 5792 5789 5786 5783 5780 5778 5774 5771 5768 5765 5761 5758 5754 5749 5745 5740 5735 5730 5727 5723 5719 5715 5712 5709 5705 5702 5699 5695 5691 5688 5684 5680
5867 5866 5866 5866 5866 5866 5866 5866 5865 5865 5864 5864 5863 5863 5863 5862 5861 5861 5861 5860 5859 5859 5858 5857 5856 5856 5855 5854 5854 5853 5852 5851 5849 5848 5846 5844 5842 5841 5839 5837 5835 5833 5830 5828 5825 5822 5820 5817 5815 5812 5810 5806 5803 5799 5796 5794 5791 5789 5786 5782 5779 5777 5774 5770 5767 5764 5760 5757 5753 5749 5745 5741 5735 5730 5726 5722 5718 5714 5711 5708 5704 5701 5697 5693 5689 5686 5682 5678
5865 5864 5864 5863 5863 5863 5863 5863 5863 5863 5862 5862 5862 5861 5861 5860 5860 5860 5859 5859 5858 5858 5857 5856 5855 5854 5854 5853 5852 5851 5850 5849 5848 5846 5844 5843 5841 5839 5837 5835 5833 5831 5828 5826 5824 5821 5819 5817 5814 5811 5809 5806 5802 5799 5796 5793 5790 5787 5785 5782 5778 5776 5772 5769 5766 5763 5759 5755 5752 5748 5743 5740 5735 5730 5726 5722 5718 5714 5711 5707 5703 5699 5695 5692 5688 5684 5680 5676
5862 5862 5862 5861 5861 5861 5861 5861 5861 5861 5860 5860 5860 5859 5859 5859 5858 5858 5858 5857 5857 5856 5855 5854 5853 5853 5852 5851 5850 5849 5848 5847 5846 5844 5843 5841 5839 5837 5836 5834 5832 5829 5827 5824 5822 5820 5818 5816 5813 5810 5808 5805 5801 5798 5795 5791 5788 5786 5784 5781 5777 5774 5771 5768 5765 5762 5758 5753 5750 5746 5742 5738 5734 5729 5725 5721 5717 5713 5710 5706 5701 5698 5694 5690 5686 5682 5678 5675
5860 5860 5860 5859 5859 5859 5859 5859 5859 5859 5859 5858 5858 5858 5857 5857 5857 5856 5856 5856 5855 5854 5853 5852 5852 5851 5850 5849 5848 5847 5846 5845 5843 5842 5841 5839 5837 5836 5834 5832 5830 5828 5825 5823 5820 5818 5816 5815 5812 5809 5806 5804 5800 5797 5793 5790 5787 5785 5782 5780 5776 5773 5770 5767 5764 5761 5757 5753 5748 5745 5740 5736 5732 5728 5724 5720 5716 5712 5708 5704 5700 5696 5692 5688 5684 5681 5677 5673
5858 5858 5858 5858 5857 5857 5857 5857 5857 5857 5857 5856 5856 5856 5855 5855 5855 5854 5854 5854 5853 5852 5851 5850 5850 5849 5848 5847 5846 5845 5843 5842 5841 5840 5839 5837 5836 5834 5832 5830 5828 5826 5824 5821 5819 5816 5815 5813 5811 5808 5805 5802 5799 5795 5792 5789 5786 5783 5781 5778 5775 5772 5769 5766 5763 5759 5756 5752 5748 5744 5739 5735 5731 5727 5723 5719 5714 5710 5707 5703 5698 5694 5691 5687 5683 5679 5675 5672
5856 5856 5855 5855 5855 5855 5855 5854 5854 5854 5854 5854 5854 5854 5853 5853 5853 5852 5852 5852 5851 5850 5849 5849 5848 5847 5846 5845 5844 5843 5841 5840 5839 5838 5837 5836 5834 5832 5830 5828 5827 5825 5823 5820 5818 5815 5813 5811 5810 5807 5804 5801 5798 5795 5791 5788 5785 5782 5779 5777 5774 5771 5767 5764 5761 5758 5754 5750 5746 5742 5738 5734 5730 5726 5721 5717 5713 5709 5706 5701 5697 5693 5689 5685 5682 5678 5674 5670
5853 5853 5853 5853 5853 5853 5852 5852 5852 5852 5852 5852 5852 5852 5851 5851 5851 5850 5850 5849 5849 5848 5848 5847 5846 5845 5844 5843 5842 5840 5839 5838 5837 5836 5835 5834 5832 5830 5828 5827 5825 5823 5821 5819 5817 5814 5812 5810 5807 5805 5803 5800 5797 5794 5791 5788 5784 5781 5778 5775 5772 5770 5766 5762 5759 5756 5752 5748 5745 5741 5737 5733 5728 5725 5721 5716 5711 5707 5704 5700 5696 5692 5688 5684 5680 5677 5673 5669